Date String (YYYY-MM-DD hh:mm:ss) UTC,Instrument flags,Ambient pressure (hPa),Sample flow (lpm),Bypass flow (lpm),Sample temperature (°C),Ambient temperature (°C),ASC tube jacket temperature (°C),LED temperature (°C),Box temperature (°C),Sample RH (%),Span deviation,Mass concentration (μg/m³),Mass concentration (μg/m³),Mass concentration (μg/m³)
DateTimeUTC,F1_M11,P_M11,Q1_M11,Q2_M11,T1_M11,T2_M11,T3_M11,T4_M11,T5_M11,U1_M11,ZSPAN_M11,X2_M11,X0_M11,X1_M11
2023-04-06 01:00:00,,0830.4,5.00,0.00,22.6,22.5,00.0,30.7,24.3,08.4,0000.0,0001.80,0003.41,0001.38
2023-04-06 01:01:00,,0830.4,5.00,0.00,22.6,22.2,00.0,30.8,24.2,08.2,0000.0,0001.77,0004.14,0001.39
2023-04-06 01:02:00,,0830.3,5.00,0.00,22.6,21.9,00.0,30.8,24.1,08.1,0000.0,0001.78,0005.18,0001.41
2023-04-06 01:03:00,,0830.3,5.01,0.00,22.5,21.6,00.0,30.8,24.1,08.3,0000.0,0001.78,0005.17,0001.43
2023-04-06 01:04:00,,0830.3,5.00,0.00,22.5,21.4,00.0,30.8,23.9,07.6,0000.0,0001.81,0005.34,0001.47
2023-04-06 01:05:00,,0830.4,5.00,0.00,22.5,21.1,00.0,30.8,23.9,07.6,0000.0,0001.85,0005.47,0001.48
2023-04-06 01:06:00,,0830.4,5.00,0.00,22.4,21.0,00.0,30.8,23.8,07.7,0000.0,0001.85,0005.61,0001.49
2023-04-06 01:07:00,,0830.5,5.00,0.00,22.4,20.8,00.0,30.8,23.8,08.2,0000.0,0001.84,0006.47,0001.49
2023-04-06 01:08:00,,0830.7,5.01,0.00,22.3,20.7,00.0,30.8,23.8,08.3,0000.0,0001.85,0006.34,0001.49
2023-04-06 01:09:00,,0830.4,5.00,0.00,22.3,20.6,00.0,30.8,23.8,08.3,0000.0,0001.86,0006.29,0001.49
2023-04-06 01:10:00,,0830.5,5.00,0.00,22.3,20.5,00.0,30.8,23.7,08.2,0000.0,0001.86,0006.28,0001.49
2023-04-06 01:11:00,,0830.7,4.99,0.00,22.3,20.5,00.0,30.7,23.7,07.5,0000.0,0001.86,0006.10,0001.50
2023-04-06 01:12:00,,0830.6,5.00,0.00,22.2,20.4,00.0,30.7,23.7,07.7,0000.0,0001.87,0004.97,0001.50
2023-04-06 01:13:00,,0830.6,5.01,0.00,22.2,20.4,00.0,30.7,23.6,08.2,0000.0,0001.85,0003.84,0001.49
2023-04-06 01:14:00,,0830.7,5.00,0.00,22.2,20.3,00.0,30.7,23.6,08.5,0000.0,0001.82,0003.79,0001.47
2023-04-06 01:15:00,,0830.7,4.99,0.00,22.2,20.3,00.0,30.7,23.6,08.6,0000.0,0001.81,0003.68,0001.44
2023-04-06 01:16:00,,0830.7,5.00,0.00,22.1,20.3,00.0,30.7,23.6,08.8,0000.0,0001.76,0003.55,0001.42
2023-04-06 01:17:00,,0830.7,5.00,0.00,22.1,20.3,00.0,30.6,23.6,09.0,0000.0,0001.78,0003.60,0001.43
2023-04-06 01:18:00,,0830.7,5.00,0.00,22.1,20.3,00.0,30.6,23.5,09.4,0000.0,0001.81,0002.70,0001.44
2023-04-06 01:19:00,,0830.7,5.00,0.00,22.1,20.6,00.0,30.6,23.7,09.1,0000.0,0001.81,0002.65,0001.43
2023-04-06 01:20:00,,0830.7,5.01,0.00,22.2,21.6,00.0,30.5,24.1,09.1,0000.0,0001.86,0002.75,0001.43
2023-04-06 01:21:00,,0830.8,4.98,0.00,22.4,22.6,00.0,30.5,24.4,09.1,0000.0,0001.87,0002.93,0001.44
2023-04-06 01:22:00,,0830.7,5.00,0.00,22.5,22.8,00.0,30.6,24.4,09.0,0000.0,0001.89,0002.97,0001.44
2023-04-06 01:23:00,,0830.7,5.00,0.00,22.5,22.5,00.0,30.7,24.2,08.7,0000.0,0001.88,0003.09,0001.42
2023-04-06 01:24:00,,0830.8,5.00,0.00,22.5,22.2,00.0,30.7,24.1,08.3,0000.0,0001.88,0003.09,0001.42
2023-04-06 01:25:00,,0830.9,5.00,0.00,22.4,21.8,00.0,30.7,24.0,08.3,0000.0,0001.87,0003.10,0001.41
2023-04-06 01:26:00,,0830.8,4.99,0.00,22.4,21.5,00.0,30.7,23.9,08.3,0000.0,0001.82,0002.98,0001.41
2023-04-06 01:27:00,,0830.9,5.00,0.00,22.4,21.2,00.0,30.7,23.8,08.4,0000.0,0001.79,0002.90,0001.41
2023-04-06 01:28:00,,0830.9,5.01,0.00,22.3,21.0,00.0,30.7,23.8,08.3,0000.0,0001.78,0002.87,0001.40
2023-04-06 01:29:00,,0830.9,4.99,0.00,22.3,20.8,00.0,30.7,23.7,08.5,0000.0,0001.79,0002.81,0001.39
2023-04-06 01:30:00,,0830.9,4.99,0.00,22.3,20.6,00.0,30.7,23.7,08.4,0000.0,0001.78,0002.73,0001.40
2023-04-06 01:31:00,,0830.9,4.99,0.00,22.3,20.5,00.0,30.7,23.7,08.2,0000.0,0001.73,0003.44,0001.38
2023-04-06 01:32:00,,0830.9,5.01,0.00,22.2,20.5,00.0,30.7,23.7,08.3,0000.0,0001.74,0003.42,0001.37
2023-04-06 01:33:00,,0830.9,5.01,0.00,22.2,20.5,00.0,30.7,23.7,08.7,0000.0,0001.72,0003.38,0001.37
2023-04-06 01:34:00,,0830.9,4.99,0.00,22.2,20.5,00.0,30.7,23.7,09.1,0000.0,0001.77,0003.88,0001.37
2023-04-06 01:35:00,,0831.0,5.00,0.00,22.2,20.5,00.0,30.7,23.7,09.2,0000.0,0001.80,0004.03,0001.38
2023-04-06 01:36:00,,0831.0,5.01,0.00,22.2,20.5,00.0,30.7,23.7,09.3,0000.0,0001.80,0005.63,0001.38
2023-04-06 01:37:00,,0831.0,5.00,0.00,22.2,20.5,00.0,30.6,23.6,09.5,0000.0,0001.83,0005.82,0001.40
2023-04-06 01:38:00,,0831.0,4.99,0.00,22.2,20.5,00.0,30.6,23.7,09.7,0000.0,0001.88,0005.90,0001.43
2023-04-06 01:39:00,,0831.1,5.00,0.00,22.2,20.5,00.0,30.6,23.7,09.9,0000.0,0001.98,0006.10,0001.50
2023-04-06 01:40:00,,0831.1,5.02,0.00,22.2,20.5,00.0,30.6,23.7,10.2,0000.0,0002.07,0006.23,0001.61
2023-04-06 01:41:00,,0831.2,4.99,0.00,22.2,20.4,00.0,30.6,23.7,10.2,0000.0,0002.26,0006.54,0001.81
2023-04-06 01:42:00,,0831.1,4.99,0.00,22.2,20.4,00.0,30.6,23.7,10.4,0000.0,0002.57,0006.40,0002.09
2023-04-06 01:43:00,,0831.2,5.02,0.00,22.2,20.5,00.0,30.6,23.7,10.5,0000.0,0002.86,0006.55,0002.39
2023-04-06 01:44:00,,0831.2,5.01,0.00,22.2,20.7,00.0,30.6,23.8,10.7,0000.0,0003.19,0007.53,0002.79
2023-04-06 01:45:00,,0831.2,5.00,0.00,22.3,21.8,00.0,30.5,24.2,10.8,0000.0,0003.40,0007.83,0003.12
2023-04-06 01:46:00,,0831.3,5.01,0.00,22.5,22.9,00.0,30.5,24.5,10.6,0000.0,0003.62,0007.97,0003.34
2023-04-06 01:47:00,,0831.3,4.99,0.00,22.6,23.1,00.0,30.6,24.6,10.7,0000.0,0003.88,0007.60,0003.58
2023-04-06 01:48:00,,0831.3,4.99,0.00,22.6,22.9,00.0,30.7,24.4,10.8,0000.0,0004.14,0007.71,0003.81
2023-04-06 01:49:00,,0831.3,5.00,0.00,22.6,22.6,00.0,30.7,24.3,11.0,0000.0,0004.38,0008.14,0004.04
2023-04-06 01:50:00,,0831.3,5.00,0.00,22.6,22.3,00.0,30.8,24.3,10.7,0000.0,0004.59,0008.37,0004.25
2023-04-06 01:51:00,,0831.3,5.00,0.00,22.6,22.1,00.0,30.8,24.2,10.8,0000.0,0004.78,0008.66,0004.42
2023-04-06 01:52:00,,0831.3,4.99,0.00,22.6,21.8,00.0,30.8,24.2,11.0,0000.0,0004.98,0008.89,0004.57
2023-04-06 01:53:00,,0831.3,5.00,0.00,22.6,21.6,00.0,30.8,24.2,11.0,0000.0,0005.12,0009.07,0004.66
2023-04-06 01:54:00,,0831.3,5.00,0.00,22.6,21.5,00.0,30.8,24.2,11.1,0000.0,0005.19,0009.21,0004.72
2023-04-06 01:55:00,,0831.3,5.01,0.00,22.6,21.4,00.0,30.8,24.2,11.2,0000.0,0005.21,0008.82,0004.73
2023-04-06 01:56:00,,0831.3,5.00,0.00,22.6,21.3,00.0,30.9,24.2,11.2,0000.0,0005.21,0008.53,0004.76
2023-04-06 01:57:00,,0831.3,4.99,0.00,22.6,21.3,00.0,30.9,24.1,11.3,0000.9,0005.23,0008.59,0004.79
2023-04-06 01:58:00,,0831.3,4.99,0.00,22.6,21.2,00.0,30.9,24.1,11.4,0002.0,0005.27,0008.80,0004.82
2023-04-06 01:59:00,,0831.3,5.01,0.00,22.6,21.2,00.0,30.9,24.1,11.5,0002.1,0005.31,0008.86,0004.85
